Location: Airport Village
(14.5084°N, 121.0067°E)
Time: 12:00:49
(UTC+00:00)

Daily predictions for brighter satellites

Satellite Brightness Start Highest point End
(mag) Time Altitude Azimuth Time Altitude Azimuth Time Altitude Azimuth
Ariane H10 4.1 12:01:48 10° WSW 12:39:22 - E 12:04:24 39° SSW
ATLAS 3B R/B 4.2 12:10:00 10° WSW 12:15:15 25° WNW 12:15:32 25° WNW
SL-16 R/B 4.5 19:16:40 17° SSE 19:16:40 17° SSE 19:17:51 10° SSE
CZ-3 R/B 4.1 19:21:47 50° WNW 19:34:45 89° SSW 19:46:46 10° ESE
Delta 2 Rocket 4.5 19:37:27 57° ESE 19:37:27 57° ESE 19:42:37 10° ENE
Atlas Centaur 2 4.4 19:42:44 18° NNE 19:42:44 18° NNE 19:45:02 10° NE
Cosmos 1709 Rocket 4.5 19:37:53 10° S 19:42:45 55° SSE 19:42:45 55° SSE
EPKM 4.0 19:46:26 74° NNW 19:47:03 79° NNE 20:13:16 10° ESE
COSMOS 2455 4.0 19:44:21 10° S 19:49:54 40° ESE 19:55:27 10° NE
USA 215 3.2 19:56:24 10° SSE 20:02:50 62° SW 20:02:54 62° WSW
ALOS 2.7 20:04:30 59° E 20:04:48 61° E 20:09:24 10° S
Meteor 2-3 Rocket 3.6 20:03:14 10° S 20:08:22 72° SW 20:08:22 72° SW
Cosmos 1943 4.3 20:07:43 20° NNE 20:11:10 41° ENE 20:16:28 10° SE
ATLAS 2A CENTAUR R/B 4.1 20:14:26 13° S 20:16:13 18° SE 20:20:23 10° E
METEOR-M 4.3 20:12:22 10° NNE 20:17:41 69° ESE 20:22:59 10° S
Maqsat-B 3.7 20:21:09 34° SSW 20:22:06 39° S 20:29:21 10° ESE
Cosmos 1937 Rocket 3.3 20:21:06 10° SSW 20:26:11 70° WNW 20:31:18 10° N
Delta 2 Rocket 4.2 20:28:11 42° N 20:29:20 51° NNE 20:33:55 10° ESE
CENTAUR R/B 3.4 20:22:33 17° NNW 20:29:46 74° ENE 20:38:27 10° SSE
Cosmos 1844 Rocket 4.0 20:34:24 23° NNW 20:34:24 23° NNW 20:36:44 10° N
Milstar 3 Cent rocket 3.9 20:30:24 24° NNW 20:33:26 32° NNE 20:43:52 10° ENE
ADEOS 3.4 20:28:19 10° N 20:33:29 67° WNW 20:38:38 10° SSW
Cosmos 1606 4.3 20:37:02 22° SSW 20:37:02 22° SSW 20:38:36 10° SSW
Cosmos 2184 Rocket 4.3 20:29:51 10° S 20:36:05 70° E 20:42:21 10° N
NOSS 3-2 (C) 4.3 20:30:23 17° NNW 20:37:22 82° ENE 20:46:11 10° SSE
Nadezhda 1 Rocket 4.4 20:37:59 36° W 20:38:14 36° W 20:43:47 10° SSW
H-2A R/B 1.8 20:36:58 10° S 20:41:06 71° WSW 20:42:28 40° NNW
SJ-12 4.1 20:38:25 10° NNE 20:42:26 71° E 20:46:29 10° S
deb Chang Zheng 4 3.4 20:40:23 10° N 20:44:42 73° WNW 20:49:01 10° SSW
USA 234 3.4 20:39:48 10° NE 20:46:20 76° SE 20:52:52 10° SSW
CZ-4B R/B 3.8 20:47:57 31° NNW 20:49:23 51° WNW 20:53:08 10° SSW
ERS-2 3.8 20:48:09 10° SE 20:51:26 33° ENE 20:54:43 10° N
Cosmos 1844 4.2 20:49:01 10° SW 20:53:55 32° WNW 20:58:49 10° N
ATLAS 5 CENTAUR R/B 1.2 20:53:52 10° SW 20:57:40 53° WNW 21:01:29 10° NNE
Cosmos 1151 Rocket 2.9 20:53:52 12° NNW 20:57:44 68° W 21:02:01 10° S
Delta 7925 Rocket 3.2 20:56:38 27° W 20:58:58 60° NNW 21:03:51 10° ENE
Cosmos 405 Rocket 2.4 20:55:24 10° S 20:59:03 82° W 21:02:44 10° N
ADEOS Rocket 3.9 20:56:39 10° SSW 21:01:34 27° W 21:04:29 19° WNW
Cosmos 1862 3.2 21:00:16 10° S 21:04:17 71° W 21:08:18 10° N
Cosmos 1515 Rocket 4.1 21:02:12 10° N 21:06:36 63° E 21:10:59 10° SSE
CZ-4B R/B 1.4 21:04:09 10° SSE 21:07:18 71° ENE 21:10:22 10° N
Cosmos 158 Rocket 3.9 21:06:45 10° NNW 21:11:46 87° WSW 21:16:55 10° SSE
Cosmos 1500 Rocket 3.7 21:08:04 10° SSW 21:12:12 46° W 21:16:19 10° N
Meteor 1-4 Rocket 2.8 21:10:40 14° NNW 21:13:18 42° W 21:16:37 10° SSW
Cosmos 923 Rocket 4.0 21:11:27 10° NNW 21:16:45 75° WSW 21:22:03 10° S
ASTRO E2 3.5 21:17:22 14° NW 21:20:27 42° NNE 21:24:13 10° E
GPS 2-17 Rocket1 2.9 21:18:04 12° W 21:22:15 79° NNW 21:26:39 10° ENE
OAO 3 Rocket 3.2 21:18:55 16° WNW 21:22:36 64° SW 21:27:15 10° SE
Meteor 1-31 Rocket 4.3 21:23:38 13° NW 21:24:47 15° WNW 21:26:58 10° WSW
Meteor PRIRODA 4.2 21:22:42 10° N 21:26:08 36° WNW 21:29:34 10° SW
Cosmos 1328 Rocket 4.3 21:22:16 10° NNW 21:26:12 32° W 21:30:09 10° SSW
Sich 1 3.3 21:22:20 10° S 21:26:44 76° E 21:31:09 10° N
PSLV R/B 3.9 21:23:12 10° NNE 21:26:55 76° ESE 21:30:35 10° S
CZ-4B R/B 3.7 21:26:39 10° NNW 21:30:26 31° WNW 21:34:04 10° SW
Atlas Centaur 2 4.0 21:25:55 10° NW 21:30:37 19° N 21:34:40 10° NE
Cosmos 1689 Rocket 3.1 21:29:50 10° SSE 21:32:35 46° ENE 21:35:20 10° N
H-2A R/B 3.1 21:29:26 10° NNE 21:33:11 56° ESE 21:37:01 10° S
Lacrosse 4 Rocket 2.1 21:29:44 10° NW 21:33:50 37° WSW 21:37:58 10° S
Delta 2 Rocket 4.3 21:29:06 10° W 21:35:12 46° NNW 21:40:55 10° NE
COSMOS 2455 4.1 21:31:44 10° WSW 21:35:44 18° WNW 21:39:46 10° NNW
NOSS 2-1 (C) 4.2 21:33:27 10° SSW 21:37:46 53° ESE 21:41:14 10° NE
SAR-Lupe-4 3.5 21:37:49 10° S 21:41:21 69° WSW 21:44:54 10° NNW
NOSS 2-1 (D) 3.8 21:38:54 10° SSW 21:43:17 65° ESE 21:46:46 10° NNE
Cosmos 1680 Rocket 3.7 21:38:30 10° NNW 21:43:37 51° WSW 21:48:42 10° S
Cosmos 2154 Rocket 4.4 21:37:53 10° SSW 21:43:40 42° W 21:49:29 10° NNW
Cosmos 1356 3.3 21:40:44 10° SSW 21:44:06 65° W 21:47:29 10° N
Cosmos 1782 4.0 21:41:57 10° NW 21:45:10 23° W 21:48:23 10° SW
COSMO-SKYMED 1 2.6 21:41:09 10° S 21:45:26 60° W 21:49:42 10° NNW
